Location: Newark
(7.0858°N, 171.3717°E)
Time: 11:48:45
(UTC+00:00)

Vanguard 1 Rocket - Pass Details

Date: 02 December 2020
Orbit: 655 x 4222 km, 34.3° (Epoch: 23 January)

Event Time Altitude Azimuth Distance (km) Brightness Sun altitude
Rises 12:49:42 0° 262° (W) 7,373 12.0 -73.8°
Enters shadow 12:53:24 - 267° (W) 6,877 11.7 -73.4°
Exits shadow 13:36:12 17° 37° (NE) 6,110 11.4 -67.1°
Drops below altitude 10° 13:39:44 10° 43° (NE) 6,505 11.7 -66.4°
Sets 13:44:36 0° 51° (NE) 7,127 12.0 -65.5°
